Hamilton, OH

1:20 PM EDT on July 27, 2017 (GMT -0400)
Butler County Regional

Weather History for KHAO - February, 2013

Change the Weather History Date:

Saturday, February 9, 2013

  Actual Average (KLUK) Record (KLUK)
Temperature  
Mean Temperature 29 °F -  
Max Temperature 41 °F 38 °F 69 °F (2001)
Min Temperature 17 °F 19 °F 2 °F (1979)
Degree Days  
Heating Degree Days 36    
Moisture  
Dew Point 19 °F    
Average Humidity 66    
Maximum Humidity 85    
Minimum Humidity 40    
Precipitation  
Precipitation 0.00 in - - ()
Sea Level Pressure  
Sea Level Pressure 30.38 in    
Wind  
Wind Speed 5 mph (ENE)    
Max Wind Speed 8 mph    
Max Gust Speed -    
Visibility 10 miles    
Events      
Averages and records for this station are not official NWS values.
T = Trace of Precipitation, MM = Missing Value Source: NWS Daily Summary

Daily Weather History Graph

Daily Weather History Graph

Search for Another Location

Airport or City:

Trip Planner

Search our weather history database for the weather conditions in past years. The results will help you decide how hot, cold, wet, or windy it might be!

Date:

Astronomy

Feb. 09, 2013 Rise Set
Actual Time 7:36 AM EST 6:08 PM EST
Civil Twilight 7:09 AM EST 6:36 PM EST
Nautical Twilight 6:37 AM EST 7:07 PM EST
Astronomical Twilight 6:06 AM EST 7:39 PM EST
Moon 6:47 AM EST (2/9) 5:49 PM EST (2/9)
Length of Visible Light 11h 27m
Length of Day
10h 31m
Waning Crescent, 0% of the Moon is Illuminated
Feb 9
Waning Crescent
Feb 10
New
Feb 17
First Quarter
Feb 25
Full
Mar 4
Last Quarter

Hourly Weather History & Observations

Time (EST) Temp. Windchill Dew Point Humidity Pressure Visibility Wind Dir Wind Speed Gust Speed Precip Events Conditions
12:53 AM 32.0 °F 26.4 °F 21.0 °F 64% 30.38 in 10.0 mi Variable 5.8 mph - N/A   Overcast
1:01 AM 32.0 °F 24.8 °F 21.2 °F 64% 30.36 in 10.0 mi North 8.1 mph - N/A   Overcast
1:46 AM 28.4 °F 22.2 °F 19.4 °F 69% 30.36 in 10.0 mi NNE 5.8 mph - N/A   Partly Cloudy
1:53 AM 28.0 °F 21.7 °F 19.0 °F 69% 30.38 in 10.0 mi NNE 5.8 mph - N/A   Partly Cloudy
2:53 AM 24.1 °F - 18.0 °F 77% 30.42 in 10.0 mi Calm Calm - N/A   Clear
3:53 AM 21.9 °F 17.2 °F 17.1 °F 82% 30.42 in 10.0 mi NNE 3.5 mph - N/A   Clear
4:53 AM 19.9 °F 14.9 °F 16.0 °F 85% 30.40 in 10.0 mi ENE 3.5 mph - N/A   Clear
5:53 AM 19.0 °F - 15.1 °F 85% 30.43 in 10.0 mi Calm Calm - N/A   Clear
6:53 AM 17.1 °F - 12.9 °F 84% 30.45 in 10.0 mi Calm Calm - N/A   Clear
7:53 AM 18.0 °F - 14.0 °F 84% 30.46 in 8.0 mi Calm Calm - N/A   Clear
8:53 AM 27.0 °F 21.6 °F 19.9 °F 75% 30.46 in 10.0 mi East 4.6 mph - N/A   Clear
9:53 AM 28.9 °F 23.9 °F 19.0 °F 67% 30.47 in 10.0 mi East 4.6 mph - N/A   Clear
10:53 AM 32.0 °F 28.7 °F 19.0 °F 59% 30.45 in 10.0 mi East 3.5 mph - N/A   Clear
11:53 AM 35.1 °F 29.3 °F 19.0 °F 52% 30.45 in 10.0 mi East 6.9 mph - N/A   Clear
12:53 PM 36.0 °F 33.3 °F 19.0 °F 50% 30.43 in 10.0 mi Variable 3.5 mph - N/A   Clear
1:53 PM 37.9 °F 34.4 °F 18.0 °F 45% 30.40 in 10.0 mi SE 4.6 mph - N/A   Clear
2:53 PM 39.9 °F 35.1 °F 19.0 °F 43% 30.38 in 10.0 mi East 6.9 mph - N/A   Clear
3:53 PM 41.0 °F 38.0 °F 18.0 °F 40% 30.36 in 10.0 mi East 4.6 mph - N/A   Clear
4:53 PM 39.0 °F 34.0 °F 19.9 °F 46% 30.35 in 10.0 mi East 6.9 mph - N/A   Clear
5:53 PM 37.0 °F 32.4 °F 21.9 °F 54% 30.34 in 10.0 mi East 5.8 mph - N/A   Clear
6:53 PM 30.9 °F 24.3 °F 21.0 °F 67% 30.33 in 10.0 mi East 6.9 mph - N/A   Clear
7:53 PM 28.9 °F 23.9 °F 19.9 °F 69% 30.33 in 10.0 mi East 4.6 mph - N/A   Clear
8:53 PM 30.0 °F 24.1 °F 21.0 °F 69% 30.30 in 10.0 mi ESE 5.8 mph - N/A   Clear
9:53 PM 28.0 °F 24.2 °F 19.9 °F 72% 30.30 in 10.0 mi East 3.5 mph - N/A   Clear
10:53 PM 25.0 °F 20.7 °F 19.0 °F 78% 30.28 in 10.0 mi ENE 3.5 mph - N/A   Clear
11:53 PM 25.0 °F 20.7 °F 19.0 °F 78% 30.27 in 10.0 mi ENE 3.5 mph - N/A   Clear